Date String (YYYY-MM-DD hh:mm:ss) UTC,Instrument flags,Ambient pressure (hPa),Sample flow (lpm),Bypass flow (lpm),Sample temperature (°C),Ambient temperature (°C),ASC tube jacket temperature (°C),LED temperature (°C),Box temperature (°C),Sample RH (%),Span deviation,Mass concentration (μg/m³),Mass concentration (μg/m³),Mass concentration (μg/m³)
DateTimeUTC,F1_M11,P_M11,Q1_M11,Q2_M11,T1_M11,T2_M11,T3_M11,T4_M11,T5_M11,U1_M11,ZSPAN_M11,X0_M11,X2_M11,X1_M11
2022-11-25 08:00:00,,0835.4,5.00,0.00,21.9,20.5,00.0,30.9,23.7,09.0,0000.0,0001.34,0000.74,0000.68
2022-11-25 08:01:00,,0835.4,5.01,0.00,21.9,20.4,00.0,30.9,23.7,08.9,0000.0,0001.34,0000.74,0000.68
2022-11-25 08:02:00,,0835.4,5.00,0.00,21.9,20.4,00.0,30.9,23.6,08.6,0000.0,0001.37,0000.74,0000.67
2022-11-25 08:03:00,,0835.4,5.00,0.00,21.9,20.4,00.0,30.9,23.7,08.7,0000.0,0001.37,0000.74,0000.67
2022-11-25 08:04:00,,0835.4,5.00,0.00,21.9,20.5,00.0,30.9,23.7,08.9,0000.0,0001.34,0000.73,0000.66
2022-11-25 08:05:00,,0835.4,5.01,0.00,21.9,21.5,00.0,30.8,23.9,08.7,0000.0,0001.34,0000.72,0000.66
2022-11-25 08:06:00,,0835.4,4.99,0.00,22.0,22.1,00.0,30.8,24.0,08.5,0000.0,0001.32,0000.72,0000.66
2022-11-25 08:07:00,,0835.4,4.99,0.00,22.1,21.9,00.0,30.9,24.1,08.4,0000.0,0001.30,0000.71,0000.67
2022-11-25 08:08:00,,0835.4,4.99,0.00,22.1,21.5,00.0,30.9,24.0,08.6,0000.0,0001.04,0000.71,0000.67
2022-11-25 08:09:00,,0835.4,5.01,0.00,22.1,21.3,00.0,30.9,23.9,08.6,0000.0,0000.93,0000.71,0000.66
2022-11-25 08:10:00,,0835.4,5.01,0.00,22.1,21.1,00.0,30.9,23.9,08.5,0000.0,0000.95,0000.72,0000.66
2022-11-25 08:11:00,,0835.4,5.00,0.00,22.0,20.9,00.0,31.0,23.9,08.5,0000.0,0001.05,0000.72,0000.66
2022-11-25 08:12:00,,0835.4,4.99,0.00,22.0,20.8,00.0,31.0,23.8,08.4,0000.0,0001.12,0000.72,0000.66
2022-11-25 08:13:00,,0835.3,4.99,0.00,22.0,20.7,00.0,31.0,23.8,08.3,0000.0,0001.08,0000.71,0000.66
2022-11-25 08:14:00,,0835.3,4.99,0.00,22.0,20.6,00.0,30.9,23.7,08.2,0000.0,0001.06,0000.71,0000.66
2022-11-25 08:15:00,,0835.3,5.00,0.00,22.0,20.6,00.0,30.9,23.7,08.1,0000.0,0001.07,0000.71,0000.67
2022-11-25 08:16:00,,0835.3,5.01,0.00,21.9,20.5,00.0,30.9,23.7,08.1,0000.0,0001.07,0000.72,0000.68
2022-11-25 08:17:00,,0835.3,5.01,0.00,21.9,20.5,00.0,30.9,23.7,08.1,0000.0,0001.08,0000.72,0000.68
2022-11-25 08:18:00,,0835.2,4.99,0.00,21.9,20.4,00.0,30.9,23.6,08.2,0000.0,0001.07,0000.71,0000.67
2022-11-25 08:19:00,,0835.2,4.99,0.00,21.9,20.4,00.0,30.9,23.7,08.1,0000.0,0001.03,0000.70,0000.67
2022-11-25 08:20:00,,0835.3,5.01,0.00,21.9,20.3,00.0,30.9,23.6,08.1,0000.0,0001.02,0000.71,0000.68
2022-11-25 08:21:00,,0835.2,5.00,0.00,21.9,20.9,00.0,30.8,23.7,08.1,0000.0,0001.03,0000.71,0000.69
2022-11-25 08:22:00,,0835.2,4.99,0.00,22.0,21.9,00.0,30.8,23.9,08.2,0000.0,0000.99,0000.73,0000.68
2022-11-25 08:23:00,,0835.2,5.00,0.00,22.1,22.1,00.0,30.8,24.1,08.3,0000.0,0000.91,0000.73,0000.68
2022-11-25 08:24:00,,0835.2,5.00,0.00,22.1,21.7,00.0,30.9,24.0,08.6,0000.0,0000.90,0000.72,0000.68
2022-11-25 08:25:00,,0835.2,4.99,0.00,22.1,21.5,00.0,30.9,24.0,08.6,0000.0,0000.89,0000.71,0000.67
2022-11-25 08:26:00,,0835.1,5.00,0.00,22.1,21.3,00.0,30.9,23.9,08.6,0000.0,0000.88,0000.70,0000.66
2022-11-25 08:27:00,,0835.2,5.02,0.00,22.0,21.0,00.0,30.9,23.9,08.7,0000.0,0000.88,0000.70,0000.66
2022-11-25 08:28:00,,0835.1,5.00,0.00,22.0,20.9,00.0,31.0,23.9,08.7,0000.0,0000.88,0000.70,0000.65
2022-11-25 08:29:00,,0835.1,4.99,0.00,22.0,20.8,00.0,31.0,23.8,08.7,0000.0,0000.89,0000.70,0000.65
2022-11-25 08:30:00,,0835.1,4.99,0.00,22.0,20.7,00.0,31.0,23.8,08.9,0000.0,0000.88,0000.70,0000.64
2022-11-25 08:31:00,,0835.1,5.02,0.00,22.0,20.6,00.0,30.9,23.7,09.0,0000.0,0000.87,0000.68,0000.63
2022-11-25 08:32:00,,0835.1,5.00,0.00,21.9,20.6,00.0,30.9,23.7,08.7,0000.0,0000.84,0000.67,0000.61
2022-11-25 08:33:00,,0835.1,4.99,0.00,21.9,20.5,00.0,30.9,23.7,08.5,0000.0,0000.79,0000.64,0000.61
2022-11-25 08:34:00,,0835.0,5.00,0.00,21.9,20.5,00.0,30.9,23.6,08.7,0000.0,0000.79,0000.63,0000.60
2022-11-25 08:35:00,,0835.1,5.01,0.00,21.9,20.4,00.0,30.9,23.6,08.7,0000.0,0000.79,0000.63,0000.59
2022-11-25 08:36:00,,0835.0,5.01,0.00,21.9,20.4,00.0,30.9,23.6,08.6,0000.0,0000.78,0000.62,0000.58
2022-11-25 08:37:00,,0835.0,5.00,0.00,21.9,20.5,00.0,30.9,23.6,08.6,0000.0,0000.77,0000.62,0000.58
2022-11-25 08:38:00,,0835.0,5.01,0.00,21.9,21.4,00.0,30.8,23.8,08.5,0000.0,0000.77,0000.61,0000.58
2022-11-25 08:39:00,,0835.0,5.00,0.00,22.0,22.3,00.0,30.8,24.0,08.6,0000.0,0000.78,0000.61,0000.57
2022-11-25 08:40:00,,0835.0,4.99,0.00,22.1,22.1,00.0,30.9,24.1,08.6,0000.0,0001.12,0000.60,0000.56
2022-11-25 08:41:00,,0835.0,4.99,0.00,22.1,21.7,00.0,30.9,24.0,08.6,0000.0,0001.15,0000.59,0000.56
2022-11-25 08:42:00,,0835.1,5.01,0.00,22.1,21.4,00.0,30.9,23.9,08.6,0000.0,0001.15,0000.59,0000.56
2022-11-25 08:43:00,,0835.0,5.00,0.00,22.1,21.2,00.0,30.9,23.9,08.4,0000.0,0001.19,0000.61,0000.57
2022-11-25 08:44:00,,0835.0,4.98,0.00,22.1,21.0,00.0,31.0,23.9,08.4,0000.0,0001.24,0000.63,0000.57
2022-11-25 08:45:00,,0835.1,5.00,0.00,22.0,20.9,00.0,31.0,23.8,08.3,0000.0,0001.21,0000.62,0000.57
2022-11-25 08:46:00,,0835.0,5.01,0.00,22.0,20.8,00.0,31.0,23.8,08.2,0000.0,0001.20,0000.61,0000.57
2022-11-25 08:47:00,,0835.0,5.01,0.00,22.0,20.7,00.0,31.0,23.8,08.4,0000.0,0001.20,0000.62,0000.57
2022-11-25 08:48:00,,0835.0,4.98,0.00,22.0,20.6,00.0,30.9,23.7,08.4,0000.0,0001.21,0000.62,0000.57
2022-11-25 08:49:00,,0835.0,5.01,0.00,22.0,20.5,00.0,30.9,23.7,08.5,0000.0,0001.20,0000.61,0000.56
2022-11-25 08:50:00,,0835.0,5.01,0.00,21.9,20.5,00.0,30.9,23.7,08.6,0000.0,0001.19,0000.61,0000.57
2022-11-25 08:51:00,,0835.0,4.99,0.00,21.9,20.4,00.0,30.9,23.7,08.5,0000.0,0000.87,0000.61,0000.57
2022-11-25 08:52:00,,0835.0,4.99,0.00,21.9,20.4,00.0,30.9,23.6,08.6,0000.0,0000.78,0000.61,0000.57
2022-11-25 08:53:00,,0835.0,5.01,0.00,21.9,20.5,00.0,30.9,23.6,08.6,0000.0,0000.78,0000.60,0000.57
2022-11-25 08:54:00,,0835.0,5.01,0.00,22.0,21.4,00.0,30.8,23.8,08.7,0000.0,0000.75,0000.59,0000.56
2022-11-25 08:55:00,,0835.0,5.00,0.00,22.1,22.1,00.0,30.8,24.0,08.8,0000.0,0000.72,0000.58,0000.55
2022-11-25 08:56:00,,0835.0,4.99,0.00,22.1,21.9,00.0,30.9,24.1,08.9,0000.0,0000.75,0000.59,0000.56
2022-11-25 08:57:00,,0835.0,5.01,0.00,22.1,21.6,00.0,30.9,24.0,09.0,0000.0,0000.80,0000.60,0000.56
2022-11-25 08:58:00,,0835.0,5.00,0.00,22.1,21.4,00.0,31.0,24.0,09.1,0000.0,0000.83,0000.62,0000.57
2022-11-25 08:59:00,,0835.0,5.00,0.00,22.1,21.2,00.0,31.0,23.9,08.9,0000.0,0000.83,0000.62,0000.58
